TimeCST,TemperatureF,Dew PointF,Humidity,Sea Level PressureIn,VisibilityMPH,Wind Direction,Wind SpeedMPH,Gust SpeedMPH,PrecipitationIn,Events,Conditions,WindDirDegrees,DateUTC
12:53 AM,19.0,10.9,71,30.38,10.0,WNW,6.9,-,N/A,,Clear,300,2013-01-03 06:53:00
1:53 AM,16.0,10.0,77,30.40,10.0,Calm,Calm,-,N/A,,Clear,0,2013-01-03 07:53:00
2:53 AM,16.0,9.0,74,30.42,10.0,NW,4.6,-,N/A,,Clear,310,2013-01-03 08:53:00
3:53 AM,16.0,9.0,74,30.42,10.0,WNW,10.4,-,N/A,,Clear,300,2013-01-03 09:53:00
4:53 AM,14.0,7.0,74,30.43,10.0,South,4.6,-,N/A,,Clear,190,2013-01-03 10:53:00
5:53 AM,18.0,10.0,71,30.45,10.0,WNW,10.4,-,N/A,,Clear,290,2013-01-03 11:53:00
6:53 AM,18.0,9.0,68,30.46,10.0,NW,10.4,-,N/A,,Clear,310,2013-01-03 12:53:00
7:53 AM,17.1,9.0,71,30.48,10.0,WNW,8.1,-,N/A,,Clear,290,2013-01-03 13:53:00
8:53 AM,17.1,9.0,71,30.50,10.0,WNW,9.2,-,N/A,,Clear,290,2013-01-03 14:53:00
9:53 AM,19.9,12.0,71,30.51,10.0,NW,8.1,-,N/A,,Clear,320,2013-01-03 15:53:00
10:53 AM,25.0,15.1,66,30.51,10.0,NW,4.6,-,N/A,,Clear,310,2013-01-03 16:53:00
11:53 AM,28.9,18.0,64,30.48,10.0,Calm,Calm,-,N/A,,Clear,0,2013-01-03 17:53:00
12:53 PM,28.9,19.0,67,30.46,10.0,SW,4.6,-,N/A,,Clear,230,2013-01-03 18:53:00
1:53 PM,32.0,19.0,59,30.43,10.0,West,3.5,-,N/A,,Clear,260,2013-01-03 19:53:00
2:53 PM,32.0,19.0,59,30.42,10.0,SW,8.1,-,N/A,,Clear,230,2013-01-03 20:53:00
3:53 PM,32.0,19.9,61,30.41,10.0,South,11.5,-,N/A,,Clear,190,2013-01-03 21:53:00
4:53 PM,30.9,19.9,64,30.41,10.0,South,6.9,-,N/A,,Clear,180,2013-01-03 22:53:00
5:53 PM,26.1,17.1,69,30.41,10.0,South,6.9,-,N/A,,Clear,190,2013-01-03 23:53:00
6:53 PM,25.0,17.1,72,30.41,10.0,SSW,6.9,-,N/A,,Clear,210,2013-01-04 00:53:00
7:53 PM,21.0,15.1,78,30.42,10.0,SSW,8.1,-,N/A,,Clear,210,2013-01-04 01:53:00
8:53 PM,19.0,12.9,77,30.42,10.0,SW,4.6,-,N/A,,Clear,220,2013-01-04 02:53:00
9:53 PM,18.0,12.0,78,30.42,10.0,WSW,5.8,-,N/A,,Clear,240,2013-01-04 03:53:00
10:53 PM,17.1,10.9,77,30.42,10.0,WSW,3.5,-,N/A,,Clear,240,2013-01-04 04:53:00
11:53 PM,19.0,12.0,74,30.40,10.0,SW,11.5,-,N/A,,Clear,230,2013-01-04 05:53:00